Voltar ao catálogo

HEAD-3A

AtivoCiênciaLEO
NORAD 57626·PAYLOAD·🇨🇳 China

Lançado Aug 14, 2023 de Xichang Satellite Launch Center

Loading…

Próximas Passagens (próximas 24 horas)

TLE

AtualizadoSource: Space-Track

Época: Sep 14, 2026, 11:05 UTC

1 57626U 23121A   26257.46215365  .00000336  00000-0  10074-3 0  9996
2 57626  45.0006 232.6712 0007005  10.3697 349.7304 14.60788057164630

Acompanhe HEAD-3A em tempo real com AllMySat

Download on the App Store